Regional Weather Roundup
Issued by NWS

Home | Current Version | Previous Version | Graphics & Text | Print | Product List | Glossary On
Versions: 1 2 3 4 5 6 7 8 9 10 11 12 13 14 15 16 17 18 19 20 21 22 23 24 25 26 27 28 29 30 31 32 33 34 35 36 37 38 39 40 41 42 43 44 45 46 47 48 49 50
776
ASUS43 KBIS 170210
RWRND

NORTH DAKOTA REGIONAL WEATHER ROUNDUP
NATIONAL WEATHER SERVICE BISMARCK ND
800 PM CST SAT DEC 16 2017

NOTE: "FAIR" INDICATES FEW OR NO CLOUDS BELOW 12,000 FEET WITH NO
SIGNIFICANT WEATHER AND/OR OBSTRUCTIONS TO VISIBILITY.


NDZ001>003-009>011-017-170300-
NORTHWEST NORTH DAKOTA

CITY           SKY/WX    TMP DP  RH WIND       PRES   REMARKS
WILLISTON      CLEAR     23  19  85 SW8       30.02R WCI  14
MINOT          CLEAR     30  21  69 SW10      29.98R
MINOT AFB      CLEAR     28  21  77 W13       29.97R WCI  17
$$

NDZ018>021-031>035-040>046-170300-
SOUTHWEST NORTH DAKOTA

CITY           SKY/WX    TMP DP  RH WIND       PRES   REMARKS
BISMARCK       CLOUDY    32  28  85 W5        30.04R
DICKINSON      CLOUDY    23  18  81 W5        30.01R WCI  17
GARRISON         N/A     30  22  72 W13       30.01R WCI  20
HETTINGER ARPT CLOUDY    25  20  81 CALM      30.04R
$$

NDZ004>008-012>016-024-026-027-054-170300-
NORTHEAST NORTH DAKOTA

CITY           SKY/WX    TMP DP  RH WIND       PRES   REMARKS
GRAND FORKS    CLOUDY    15  14  95 S7        30.03R WCI   5
GRND FRKS AFB  CLOUDY    14  11  88 SW5       30.02S WCI   6
DEVILS LAKE    CLEAR     24  22  91 SW7       29.99R WCI  16
$$

NDZ022-023-025-028>030-036>039-047>053-170300-
SOUTHEAST NORTH DAKOTA

CITY           SKY/WX    TMP DP  RH WIND       PRES   REMARKS
FARGO          PTCLDY    23  21  92 CALM      30.04S FOG
JAMESTOWN      CLOUDY    31  28  89 CALM      30.01R
$$





USA.gov is the U.S. government's official web portal to all federal, state and local government web resources and services.